Location: Newark
(34.1333°N, 7.9667°W)
Time: 07:41:07
(UTC+00:00)

S-56A Canister/Altair - Pass Details

Date: 13 December 2021
Orbit: 634 x 2499 km, 38.9° (Epoch: 25 January)

Event Time Altitude Azimuth Distance (km) Brightness Sun altitude
Rises 19:29:45 0° 221° (SW) 6,120 12.9 -25.4°
Reaches altitude 10° 19:33:52 10° 217° (SW) 5,152 12.3 -26.2°
Maximum altitude 19:48:16 54° 145° (SE) 2,692 10.0 -29.2°
Enters shadow 19:51:57 45° 105° (ESE) 2,810 9.8 -29.9°
